This demonstration page uses our WeatherBlox Daily Observations layout. Learn more.

Left ArrowRight Arrow

44.89941, -97.11507

Hourly Observations for August 24, 2016

Temp ( °F °C ) Dew Point ( °F °C ) Humidity (%) Winds ( mph kmh ) Pressure ( in mb ) Visibility ( mi km ) Precip ( " mm )
12:53 am 00:53 Mostly Cloudy 71 21.7 67 19.4 87 87 NW 10 17 29.82 1010 10 16 0.00 0.00
1:07 am 01:07 Partly Cloudy 71 21.7 65 18.3 81 81 NNW 14 22 29.80 1009 10 16 0.00 0.00
1:53 am 01:53 Clear 68 20 60 15.6 76 76 NNW 13 20 29.83 1010 10 16 0.00 0.00
2:53 am 02:53 Clear 66 18.9 57 13.9 73 73 NNW 10 17 29.85 1011 10 16 0.00 0.00
3:53 am 03:53 Clear 59 15 53 11.7 81 81 N 6 9 29.87 1012 10 16 0.00 0.00
4:53 am 04:53 Clear 59 15 53 11.7 81 81 NW 6 9 29.89 1012 10 16 0.00 0.00
5:53 am 05:53 Clear 59 15 53 11.7 81 81 WNW 3 6 29.92 1013 10 16 0.00 0.00
6:53 am 06:53 Sunny 60 15.6 54 12.2 80 80 WNW 8 13 29.94 1014 10 16 0.00 0.00
7:53 am 07:53 Sunny 61 16.1 53 11.7 75 75 NW 10 17 29.95 1014 10 16 0.00 0.00
8:53 am 08:53 Sunny 65 18.3 53 11.7 66 66 NW 8 13 29.96 1015 10 16 0.00 0.00
9:53 am 09:53 Sunny 70 21.1 53 11.7 55 55 NW 12 19 29.95 1014 10 16 0.00 0.00
10:53 am 10:53 Sunny 71 21.7 53 11.7 53 53 NW 14 22 29.98 1015 10 16 0.00 0.00
11:53 am 11:53 Sunny 72 22.2 53 11.7 52 52 WNW 10 17 30.00 1016 10 16 0.00 0.00
12:53 pm 12:53 Sunny 73 22.8 54 12.2 51 51 WNW 13 20 30.01 1016 10 16 0.00 0.00
1:53 pm 13:53 Sunny 74 23.3 52 11.1 46 46 W 16 26 30.01 1016 10 16 0.00 0.00
2:53 pm 14:53 Sunny 73 22.8 51 10.6 46 46 WNW 17 28 30.01 1016 10 16 0.00 0.00
3:53 pm 15:53 Sunny 74 23.3 53 11.7 48 48 W 14 22 30.01 1016 10 16 0.00 0.00
4:53 pm 16:53 Sunny 74 23.3 54 12.2 50 50 WNW 13 20 30.01 1016 10 16 0.00 0.00
5:53 pm 17:53 Sunny 72 22.2 52 11.1 50 50 WNW 12 19 30.02 1017 10 16 0.00 0.00
6:53 pm 18:53 Sunny 71 21.7 54 12.2 55 55 WNW 7 11 30.00 1016 10 16 0.00 0.00
7:53 pm 19:53 Sunny 68 20 57 13.9 68 68 NW 3 6 30.00 1016 10 16 0.00 0.00
8:53 pm 20:53 Clear 63 17.2 56 13.3 78 78 WSW 5 7 30.01 1016 10 16 0.00 0.00
9:53 pm 21:53 Clear 60 15.6 54 12.2 80 80 WSW 7 11 30.02 1017 10 16 0.00 0.00
10:53 pm 22:53 Clear 59 15 55 12.8 87 87 S 6 9 30.03 1017 10 16 0.00 0.00
11:53 pm 23:53 Clear 61 16.1 55 12.8 81 81 SW 9 15 30.03 1017 10 16 0.00 0.00

Powered by AerisWeather